Weather History for Siloam Springs, AR

Change the Weather History Date:

Sunday, February 24, 2013

  Actual Average Record
Temperature  
Mean Temperature 42 °F -  
Max Temperature 59 °F 49 °F 69 °F (2002)
Min Temperature 26 °F 31 °F 12 °F (2003)
Degree Days  
Heating Degree Days 22    
Moisture  
Dew Point 27 °F    
Average Humidity 55    
Maximum Humidity 74    
Minimum Humidity 34    
Precipitation  
Precipitation 0.00 in - - ()
Sea Level Pressure  
Sea Level Pressure 29.92 in    
Wind  
Wind Speed 8 mph (ESE)    
Max Wind Speed 16 mph    
Max Gust Speed 23 mph    
Visibility 10 miles    
Events      
Averages and records for this station are not official NWS values.
T = Trace of Precipitation, MM = Missing Value Source: NWS Daily Summary

Daily Weather History Graph

Daily Weather History Graph

Search for Another Location

Airport:

Trip Planner

Search our weather history database for the weather conditions in past years. The results will help you decide how hot, cold, wet, or windy it might be!

Date:

Astronomy

Feb. 24, 2013 Rise Set
Actual Time 6:54 AM CST 6:08 PM CST
Civil Twilight 6:28 AM CST 6:34 PM CST
Nautical Twilight 5:58 AM CST 7:04 PM CST
Astronomical Twilight 5:28 AM CST 7:33 PM CST
Moon 5:20 PM CST (2/24) 5:51 AM CST (2/24)
Length of Visible Light 12h 05m
Length of Day
11h 13m
Waxing Gibbous, 99% of the Moon is Illuminated
Feb 24
Waxing Gibbous
Feb 25
Full
Mar 4
Last Quarter
Mar 11
New
Mar 19
First Quarter

Hourly Weather History & Observations

Time (CST) Temp. Windchill Dew Point Humidity Pressure Visibility Wind Dir Wind Speed Gust Speed Precip Events Conditions
12:15 AM 30.2 °F 24.3 °F 19.4 °F 64% 29.98 in 10.0 mi East 5.8 mph - N/A   Unknown
12:35 AM 30.2 °F 24.3 °F 19.4 °F 64% 29.99 in 10.0 mi East 5.8 mph - N/A   Unknown
12:55 AM 30.2 °F 25.4 °F 19.4 °F 64% 29.99 in 10.0 mi East 4.6 mph - N/A   Unknown
1:15 AM 30.2 °F 25.4 °F 19.4 °F 64% 29.99 in 10.0 mi East 4.6 mph - N/A   Unknown
1:35 AM 30.2 °F 25.4 °F 19.4 °F 64% 29.99 in 10.0 mi East 4.6 mph - N/A   Unknown
1:55 AM 30.2 °F 25.4 °F 19.4 °F 64% 29.98 in 10.0 mi East 4.6 mph - N/A   Unknown
2:15 AM 30.2 °F 24.3 °F 19.4 °F 64% 29.98 in 10.0 mi East 5.8 mph - N/A   Unknown
2:35 AM 28.4 °F 21.2 °F 19.4 °F 69% 29.97 in 10.0 mi East 6.9 mph - N/A   Unknown
2:55 AM 28.4 °F 22.2 °F 19.4 °F 69% 29.96 in 10.0 mi East 5.8 mph - N/A   Unknown
3:15 AM 28.4 °F 21.2 °F 19.4 °F 69% 29.95 in 10.0 mi East 6.9 mph - N/A   Unknown
3:35 AM 28.4 °F 20.4 °F 19.4 °F 69% 29.95 in 10.0 mi East 8.1 mph - N/A   Unknown
3:55 AM 28.4 °F 19.7 °F 19.4 °F 69% 29.95 in 10.0 mi East 9.2 mph - N/A   Unknown
4:15 AM 28.4 °F 20.4 °F 19.4 °F 69% 29.94 in 10.0 mi East 8.1 mph - N/A   Unknown
4:35 AM 28.4 °F 21.2 °F 19.4 °F 69% 29.94 in 10.0 mi East 6.9 mph - N/A   Unknown
4:55 AM 26.6 °F 22.6 °F 19.4 °F 74% 29.96 in 10.0 mi ENE 3.5 mph - N/A   Unknown
5:15 AM 26.6 °F 21.2 °F 19.4 °F 74% 29.96 in 10.0 mi East 4.6 mph - N/A   Unknown
5:35 AM 26.6 °F 21.2 °F 19.4 °F 74% 29.95 in 10.0 mi East 4.6 mph - N/A   Unknown
5:55 AM 28.4 °F 20.4 °F 19.4 °F 69% 29.95 in 10.0 mi East 8.1 mph - N/A   Unknown
6:15 AM 28.4 °F 20.4 °F 19.4 °F 69% 29.96 in 10.0 mi East 8.1 mph - N/A   Unknown
6:35 AM 28.4 °F 19.7 °F 19.4 °F 69% 29.95 in 10.0 mi East 9.2 mph - N/A   Unknown
7:15 AM 28.4 °F 20.4 °F 21.2 °F 74% 29.94 in 10.0 mi East 8.1 mph - N/A   Unknown
7:35 AM 30.2 °F 23.4 °F 21.2 °F 69% 29.96 in 10.0 mi East 6.9 mph - N/A   Unknown
7:55 AM 30.2 °F 26.7 °F 21.2 °F 69% 29.97 in 10.0 mi ESE 3.5 mph - N/A   Unknown
8:15 AM 33.8 °F 29.6 °F 23.0 °F 65% 29.98 in 10.0 mi East 4.6 mph - N/A   Unknown
8:35 AM 35.6 °F 29.2 °F 24.8 °F 65% 29.98 in 10.0 mi East 8.1 mph - N/A   Unknown
8:55 AM 37.4 °F 32.1 °F 26.6 °F 65% 29.98 in 10.0 mi ESE 6.9 mph - N/A   Unknown
9:15 AM 41.0 °F 36.4 °F 28.4 °F 61% 29.99 in 10.0 mi ESE 6.9 mph - N/A   Unknown
9:35 AM 42.8 °F 37.5 °F 30.2 °F 61% 29.99 in 10.0 mi SE 9.2 mph - N/A   Unknown
9:55 AM 46.4 °F 42.4 °F 30.2 °F 53% 30.00 in 10.0 mi SSE 8.1 mph - N/A   Unknown
10:15 AM 48.2 °F - 32.0 °F 54% 30.00 in 10.0 mi SSE 11.5 mph - N/A   Unknown
10:35 AM 50.0 °F - 32.0 °F 50% 29.99 in 10.0 mi South 12.7 mph 17.3 mph N/A   Unknown
10:55 AM 51.8 °F - 33.8 °F 50% 29.98 in 10.0 mi SE 11.5 mph - N/A   Unknown
11:15 AM 51.8 °F - 33.8 °F 50% 29.98 in 10.0 mi SSE 12.7 mph 17.3 mph N/A   Unknown
11:35 AM 53.6 °F - 33.8 °F 47% 29.97 in 10.0 mi SE 12.7 mph 16.1 mph N/A   Unknown
11:55 AM 53.6 °F - 33.8 °F 47% 29.97 in 10.0 mi SE 12.7 mph 18.4 mph N/A   Unknown
12:15 PM 53.6 °F - 33.8 °F 47% 29.96 in 10.0 mi SE 6.9 mph - N/A   Unknown
12:35 PM 55.4 °F - 33.8 °F 44% 29.95 in 10.0 mi SSE 12.7 mph - N/A   Unknown
12:55 PM 55.4 °F - 33.8 °F 44% 29.94 in 10.0 mi South 10.4 mph - N/A   Unknown
1:15 PM 57.2 °F - 33.8 °F 41% 29.93 in 10.0 mi South 10.4 mph 18.4 mph N/A   Unknown
1:35 PM 57.2 °F - 33.8 °F 41% 29.92 in 10.0 mi SSE 10.4 mph 16.1 mph N/A   Unknown
1:55 PM 57.2 °F - 33.8 °F 41% 29.91 in 10.0 mi SSE 12.7 mph - N/A   Unknown
2:15 PM 57.2 °F - 33.8 °F 41% 29.90 in 10.0 mi SE 12.7 mph - N/A   Unknown
2:35 PM 57.2 °F - 33.8 °F 41% 29.89 in 10.0 mi SE 11.5 mph 16.1 mph N/A   Unknown
2:55 PM 59.0 °F - 32.0 °F 36% 29.88 in 10.0 mi SE 15.0 mph - N/A   Unknown
3:15 PM 57.2 °F - 30.2 °F 36% 29.87 in 10.0 mi SSE 13.8 mph 17.3 mph N/A   Unknown
3:35 PM 59.0 °F - 30.2 °F 34% 29.86 in 10.0 mi SSE 16.1 mph 19.6 mph N/A   Unknown
3:55 PM 57.2 °F - 30.2 °F 36% 29.85 in 10.0 mi SE 15.0 mph 23.0 mph N/A   Unknown
4:15 PM 57.2 °F - 30.2 °F 36% 29.85 in 10.0 mi SE 15.0 mph 20.7 mph N/A   Unknown
4:35 PM 57.2 °F - 32.0 °F 38% 29.86 in 10.0 mi SSE 13.8 mph - N/A   Unknown
4:55 PM 55.4 °F - 30.2 °F 38% 29.85 in 10.0 mi SSE 10.4 mph 17.3 mph N/A   Unknown
5:15 PM 55.4 °F - 30.2 °F 38% 29.85 in 10.0 mi SE 8.1 mph - N/A   Unknown
5:35 PM 53.6 °F - 30.2 °F 41% 29.84 in 10.0 mi SSE 9.2 mph - N/A   Unknown
5:55 PM 51.8 °F - 30.2 °F 44% 29.84 in 10.0 mi SSE 10.4 mph - N/A   Unknown
6:15 PM 51.8 °F - 30.2 °F 44% 29.84 in 10.0 mi SE 6.9 mph - N/A   Unknown
6:35 PM 48.2 °F - 28.4 °F 46% 29.84 in 10.0 mi ESE 5.8 mph - N/A   Unknown
6:55 PM 50.0 °F - 28.4 °F 43% 29.84 in 10.0 mi ESE 10.4 mph 16.1 mph N/A   Unknown
7:15 PM 50.0 °F - 28.4 °F 43% 29.84 in 10.0 mi ESE 11.5 mph - N/A   Unknown
7:35 PM 48.2 °F - 28.4 °F 46% 29.84 in 10.0 mi ESE 11.5 mph 16.1 mph N/A   Unknown
8:15 PM 48.2 °F - 28.4 °F 46% 29.85 in 10.0 mi SE 9.2 mph - N/A   Unknown
8:35 PM 46.4 °F 42.9 °F 28.4 °F 50% 29.86 in 10.0 mi ESE 6.9 mph - N/A   Unknown
8:55 PM 46.4 °F 42.9 °F 28.4 °F 50% 29.86 in 10.0 mi ESE 6.9 mph - N/A   Unknown
9:15 PM 44.6 °F 40.7 °F 28.4 °F 53% 29.86 in 10.0 mi ESE 6.9 mph - N/A   Unknown
9:35 PM 44.6 °F 41.4 °F 28.4 °F 53% 29.86 in 10.0 mi East 5.8 mph - N/A   Unknown
9:55 PM 42.8 °F 39.3 °F 26.6 °F 53% 29.86 in 10.0 mi ENE 5.8 mph - N/A   Unknown
10:15 PM 42.8 °F 40.1 °F 28.4 °F 57% 29.86 in 10.0 mi ENE 4.6 mph - N/A   Unknown
10:35 PM 42.8 °F 39.3 °F 28.4 °F 57% 29.86 in 10.0 mi East 5.8 mph - N/A   Unknown
10:55 PM 42.8 °F 38.6 °F 28.4 °F 57% 29.85 in 10.0 mi East 6.9 mph - N/A   Unknown
11:15 PM 39.2 °F 37.0 °F 26.6 °F 61% 29.86 in 10.0 mi ENE 3.5 mph - N/A   Unknown
11:35 PM 41.0 °F 38.0 °F 28.4 °F 61% 29.86 in 10.0 mi East 4.6 mph - N/A   Unknown